Regional Weather Roundup
Issued by NWS

Home | Current Version | Previous Version | Graphics & Text | Print | Product List | Glossary On
Versions: 1 2 3 4 5 6 7 8 9 10 11 12 13 14 15 16 17 18 19 20 21 22 23 24 25 26 27 28 29 30 31 32 33 34 35 36 37 38 39 40 41 42 43 44 45 46 47 48 49 50
000
ASUS43 KDMX 230501
RWRIA

WEATHER ROUNDUP FOR IOWA
NATIONAL WEATHER SERVICE DES MOINES IA
1200 AM CDT THU MAR 23 2017

NOTE: "FAIR" INDICATES FEW OR NO CLOUDS BELOW 12,000 FEET WITH NO
SIGNIFICANT WEATHER AND/OR OBSTRUCTIONS TO VISIBILITY.

* - THESE STATIONS ARE NOT NWS STATIONS...THUS NOT UNDER NWS
QUALITY CONTROL.  THEY ALSO DO NOT REPORT WEATHER SUCH
AS PRECIPITATION OR FOG.

IAZ001>003-012>014-020>022-031>034-043>046-230600-
   NORTHWEST IOWA

CITY           SKY/WX    TMP DP  RH WIND       PRES   REMARKS
CARROLL *      CLOUDY    41  23  48 SE17G23   30.19F
DENISON *      CLOUDY    41  23  48 SE10G17   30.14F
LE MARS *      CLOUDY    41  25  52 SE13G22   30.13F
ORANGE CITY *  CLOUDY    39  27  60 SE14G20   30.12F WCI  31
SHELDON *      CLOUDY    39  30  70 SE23      30.11F WCI  29
SIOUX CITY     CLOUDY    42  26  53 SE14      30.12F
SPENCER        CLOUDY    38  24  57 SE14      30.18S WCI  30
STORM LAKE *   CLOUDY    39  25  56 SE22G28   30.16F WCI  29
$$

IAZ055>058-069>071-079>083-090>094-230600-
   SOUTHWEST IOWA

CITY           SKY/WX    TMP DP  RH WIND       PRES   REMARKS
ATLANTIC *     CLOUDY    43  21  42 SE12G18   30.18F
AUDUBON *      CLOUDY    41  21  45 SE12G17   30.19F
CLARINDA *     CLOUDY    45  21  39 SE12      30.21F
COUNCIL BLFS * CLOUDY    43  25  49 SE21      30.15F
CRESTON *      CLOUDY    43  18  36 SE15G21   30.23S
HARLAN  *      CLOUDY    43  23  45 SE15G21   30.20F
LAMONI         CLOUDY    43  14  31 SE12G21   30.23F
RED OAK *      CLOUDY    45  23  42 SE12      30.18F
SHENANDOAH *   CLOUDY    45  23  42 SE15G23   30.18F
$$

IAZ047>049-059>061-072>074-084-230600-
   CENTRAL IOWA

CITY           SKY/WX    TMP DP  RH WIND       PRES   REMARKS
AMES           CLOUDY    40  21  46 SE15G21   30.25F WCI  32
ANKENY *       CLOUDY    41  19  42 SE15      30.28R
BOONE *        CLOUDY    39  19  45 SE18      30.23F WCI  30
CHARITON *     CLOUDY    41  16  36 SE12G18   30.26R
DES MOINES     CLOUDY    42  18  37 SE14      30.27
GRINNELL*      CLOUDY    38  20  49 SE14      30.30S WCI  29
MARSHALLTOWN   CLOUDY    38  20  48 SE16      30.28F WCI  29
NEWTON *       CLOUDY    39  19  45 SE17G24   30.27S WCI  30
PELLA *        CLOUDY    39  19  44 SE13      30.29S WCI  31
PERRY *        CLOUDY    40  17  39 SE13G21   30.24R WCI  33
$$

IAZ004>006-015-016-023>025-035-036-230600-
   NORTH CENTRAL IOWA

CITY           SKY/WX    TMP DP  RH WIND       PRES   REMARKS
ALGONA *       CLOUDY    37  23  56 SE20G28   30.20S WCI  27
CLARION *      CLOUDY    37  21  52 SE18      30.22F WCI  27
ESTHERVILLE    CLOUDY    35  24  64 SE20      30.19R WCI  24
FORT DODGE *   CLOUDY    39  19  45 SE13      30.22S WCI  32
MASON CITY     CLOUDY    35  21  56 SE16      30.26F WCI  25
WEBSTER CITY * CLOUDY    39  21  48 SE22      30.20F WCI  29
IOWA FALLS *   CLOUDY    38  22  52 SE14G22   30.27F WCI  30
$$

IAZ007>011-017>019-026>030-037>042-050>054-066-230600-
   NORTHEAST IOWA

CITY           SKY/WX    TMP DP  RH WIND       PRES   REMARKS
CEDAR RAPIDS   CLOUDY    35  22  58 SE13      30.33S WCI  26
CHARLES CITY * PTCLDY    36  21  55 SE13      30.29F WCI  27
CLINTON *      CLOUDY    34  21  59 SE17      30.39F WCI  23
DECORAH *      CLOUDY    36  19  51 S9G15     30.32R WCI  29
DUBUQUE        CLOUDY    35  22  58 SE15      30.36S WCI  25
MONTICELLO *   CLOUDY    36  23  60 SE14      30.36S WCI  27
OELWEIN *      CLOUDY    36  25  64 SE15      30.33F WCI  26
WATERLOO       CLOUDY    36  21  54 SE9       30.31  WCI  29
$$

IAZ064-065-067-068-078-230600-
   EAST CENTRAL IOWA

CITY           SKY/WX    TMP DP  RH WIND       PRES   REMARKS
DAVENPORT      CLOUDY    35  19  52 SE17      30.38F WCI  25
IOWA CITY      CLOUDY    37  22  54 SE14      30.36F WCI  28
MUSCATINE *    CLOUDY    37  21  52 SE13G21   30.37F WCI  29
QUAD CITIES    CLOUDY    35  20  54 SE9       30.39F WCI  28
$$

IAZ062-063-075>077-085>089-095>099-230600-
   SOUTHEAST IOWA

CITY           SKY/WX    TMP DP  RH WIND       PRES   REMARKS
BURLINGTON     CLOUDY    37  22  54 SE13      30.36F WCI  29
FAIRFIELD *    CLOUDY    39  18  41 SE14      30.31F WCI  31
KEOKUK *       CLOUDY    39  19  45 E13       30.34S WCI  32
OTTUMWA        CLOUDY    39  15  37 SE17      30.28F WCI  30
WASHINGTON *   CLOUDY    37  21  52 SE17G23   30.34F WCI  28
$$

ABBREVIATIONS USED IN REMARKS
   TC - TEMPERATURES IN CELSIUS
  WCI - WIND CHILL INDEX
   HX - HEAT INDEX
  VSB - VISIBILITY
$$




USA.gov is the U.S. government's official web portal to all federal, state and local government web resources and services.